Regional Weather Roundup
Issued by NWS

Home | Current Version | Previous Version | Text Only | Print | Product List | Glossary Off
Versions: 1 2 3 4 5 6 7 8 9 10 11 12 13 14 15 16 17 18 19 20 21 22 23 24 25 26 27 28 29 30 31 32 33 34 35 36 37 38 39 40 41 42 43 44 45 46 47 48 49 50

114
ASUS45 KSLC 151810
RWRUT

UTAH REGIONAL WEATHER ROUNDUP
NATIONAL WEATHER SERVICE SALT LAKE CITY UT
1200 PM MDT TUE AUG 15 2017

UTZ001>011-023>025-151900-

NORTHERN UTAH

CITY           SKY/WX    TMP DP  RH WIND       PRES   REMARKS
BRIGHAM CITY   SUNNY     72  44  37 CALM      29.99S
HILL AFB       MOSUNNY   70  48  46 CALM      30.00F
LOGAN          MOSUNNY   70  50  49 NE5       30.00S
OGDEN          SUNNY     71  47  42 W3        29.99S
SALT LAKE CITY MOSUNNY   76  49  38 N9        29.97S
TOOELE VALLEY  SUNNY     72  52  49 NW13      29.98F
WENDOVER       SUNNY     74  45  35 SE10      29.99S
HEBER CITY     PTSUNNY   68  46  45 CALM      30.00F
WEST JORDAN    SUNNY     71  56  58 NE7       30.00S

$$

UTZ011>015-024>027-151900-

CENTRAL/NORTHEAST UTAH

CITY           SKY/WX    TMP DP  RH WIND       PRES   REMARKS
PROVO AIRPORT  MOSUNNY   71  53  52 W6        29.99F
DELTA          PTSUNNY   72  43  35 CALM      29.99S
PRICE          CLOUDY    72  44  36 SW6       30.03R
ROOSEVELT      PTSUNNY   72  50  46 S3        29.99F
VERNAL         CLOUDY    75  55  49 MISG      29.98S

$$

UTZ013>016-019>022-027-151900-

SOUTHERN UTAH

CITY           SKY/WX    TMP DP  RH WIND       PRES   REMARKS
BRYCE CANYON   CLOUDY    62  31  31 SE8       30.17R
CEDAR CITY     MOSUNNY   76  35  22 W9        30.01S
MILFORD        NOT AVBL
ST GEORGE      PTCLDY    84  34  16 NW5       29.86R
HANKSVILLE     CLOUDY    81  30  16 SW17      29.97S
BLANDING       CLOUDY    70  36  28 S3        30.15S

$$

REGIONAL REPORTS     COLORADO/ARIZONA

CITY           SKY/WX    TMP DP  RH WIND       PRES   REMARKS
CRAIG, CO      CLOUDY    71  48  43 NW8       30.03F
GRAND JUNCTION PTSUNNY   79  49  34 W7        29.94R
RIFLE, CO      CLOUDY    75  42  30 W5        29.98F
MONTROSE, CO   CLOUDY    76  30  18 W13       30.03S
CORTEZ, CO     CLOUDY    76  31  19 SW13      30.08F
COLORADO CITY    N/A     79  34  19 SE13      30.03R
PAGE, AZ       CLOUDY    81  25  12 N5        29.96S
GRAND CANYON   CLOUDY    67  25  20 S15G24    30.13S
KINGMAN, AZ    PTSUNNY   82  35  18 CALM      29.92S
FLAGSTAFF, AZ  CLOUDY    64  37  36 SW14      30.18S

$$

REGIONAL REPORTS    NEVADA/IDAHO/WYOMING

CITY           SKY/WX    TMP DP  RH WIND       PRES   REMARKS
LAS VEGAS, NV  MOSUNNY   87  46  24 S5        29.79R
ELY, NY        SUNNY     69  41  36 NE5       30.05F
ELKO, NV       SUNNY     69  47  45 VRB3      30.02F
POCATELLO, ID  MOSUNNY   69  49  48 E5        30.01F
BURLEY, ID     SUNNY     70  51  51 E3        29.97S
EVANSTON, WY   CLOUDY    61  41  47 VRB6G17   30.11R
ROCK SPRINGS,  CLOUDY    62  48  60 W10       30.07F
KEMMERER, WY     N/A     61  43  51 W9G16     30.12S

$$




USA.gov is the U.S. government's official web portal to all federal, state and local government web resources and services.